Time,TemperatureF,DewpointF,PressureIn,WindDirection,WindDirectionDegrees,WindSpeedMPH,WindSpeedGustMPH,Humidity,HourlyPrecipIn,Conditions,Clouds,dailyrainin,SoftwareType,DateUTC
2013-01-30 00:02:00,38.1,13.0,29.90,WNW,284,17.0,20.0,35,0.00,,,0.00,weatherlink.com 1.10,2013-01-30 06:02:00,
2013-01-30 00:17:00,37.8,12.0,29.91,West,265,14.0,20.0,35,0.00,,,0.00,weatherlink.com 1.10,2013-01-30 06:17:00,
2013-01-30 00:32:00,37.7,12.0,29.92,West,267,9.0,19.0,35,0.00,,,0.00,weatherlink.com 1.10,2013-01-30 06:32:00,
2013-01-30 00:47:00,37.2,12.0,29.93,West,265,10.0,14.0,35,0.00,,,0.00,weatherlink.com 1.10,2013-01-30 06:47:00,
2013-01-30 01:02:00,37.3,11.0,29.93,West,265,6.0,18.0,34,0.00,,,0.00,weatherlink.com 1.10,2013-01-30 07:02:00,
2013-01-30 01:17:00,36.9,11.0,29.93,West,274,12.0,15.0,35,0.00,,,0.00,weatherlink.com 1.10,2013-01-30 07:17:00,
2013-01-30 01:32:00,36.8,11.0,29.93,WSW,258,10.0,24.0,34,0.00,,,0.00,weatherlink.com 1.10,2013-01-30 07:32:00,
2013-01-30 01:47:00,36.6,11.0,29.93,WNW,284,17.0,20.0,35,0.00,,,0.00,weatherlink.com 1.10,2013-01-30 07:47:00,
2013-01-30 02:02:00,36.4,11.0,29.94,West,271,9.0,21.0,35,0.00,,,0.00,weatherlink.com 1.10,2013-01-30 08:02:00,
2013-01-30 02:18:00,36.3,11.0,29.95,West,277,10.0,20.0,35,0.00,,,0.00,weatherlink.com 1.10,2013-01-30 08:18:00,
2013-01-30 02:33:00,35.9,11.0,29.97,West,264,11.0,18.0,36,0.00,,,0.00,weatherlink.com 1.10,2013-01-30 08:33:00,
2013-01-30 02:47:00,36.0,12.0,29.98,West,275,11.0,20.0,37,0.00,,,0.00,weatherlink.com 1.10,2013-01-30 08:47:00,
2013-01-30 03:02:00,35.8,12.0,29.98,West,269,11.0,19.0,37,0.00,,,0.00,weatherlink.com 1.10,2013-01-30 09:02:00,
2013-01-30 03:17:00,35.6,12.0,29.99,West,271,14.0,23.0,38,0.00,,,0.00,weatherlink.com 1.10,2013-01-30 09:17:00,
2013-01-30 03:33:00,35.5,13.0,30.00,WNW,284,13.0,18.0,39,0.00,,,0.00,weatherlink.com 1.10,2013-01-30 09:33:00,
2013-01-30 03:48:00,35.2,13.0,30.01,West,264,8.0,19.0,40,0.00,,,0.00,weatherlink.com 1.10,2013-01-30 09:48:00,
2013-01-30 04:03:00,34.5,13.0,30.01,West,277,11.0,18.0,41,0.00,,,0.00,weatherlink.com 1.10,2013-01-30 10:03:00,
2013-01-30 04:18:00,34.3,13.0,30.01,West,273,13.0,18.0,42,0.00,,,0.00,weatherlink.com 1.10,2013-01-30 10:18:00,
2013-01-30 04:33:00,34.2,14.0,30.02,West,281,9.0,15.0,43,0.00,,,0.00,weatherlink.com 1.10,2013-01-30 10:33:00,
2013-01-30 04:48:00,34.1,14.0,30.02,West,264,8.0,17.0,43,0.00,,,0.00,weatherlink.com 1.10,2013-01-30 10:48:00,
2013-01-30 05:03:00,34.3,14.0,30.03,WNW,287,11.0,16.0,43,0.00,,,0.00,weatherlink.com 1.10,2013-01-30 11:03:00,
2013-01-30 05:18:00,33.9,14.0,30.04,West,275,7.0,15.0,44,0.00,,,0.00,weatherlink.com 1.10,2013-01-30 11:18:00,
2013-01-30 05:33:00,33.6,14.0,30.05,West,277,8.0,16.0,45,0.00,,,0.00,weatherlink.com 1.10,2013-01-30 11:33:00,
2013-01-30 05:48:00,33.8,15.0,30.06,West,277,11.0,13.0,46,0.00,,,0.00,weatherlink.com 1.10,2013-01-30 11:48:00,
2013-01-30 06:03:00,33.5,15.0,30.07,West,279,9.0,13.0,47,0.00,,,0.00,weatherlink.com 1.10,2013-01-30 12:03:00,
2013-01-30 06:18:00,33.1,15.0,30.08,West,277,5.0,13.0,48,0.00,,,0.00,weatherlink.com 1.10,2013-01-30 12:18:00,
2013-01-30 06:33:00,33.0,15.0,30.09,West,276,6.0,9.0,48,0.00,,,0.00,weatherlink.com 1.10,2013-01-30 12:33:00,
2013-01-30 06:48:00,33.1,15.0,30.09,WNW,284,8.0,14.0,48,0.00,,,0.00,weatherlink.com 1.10,2013-01-30 12:48:00,
2013-01-30 07:03:00,33.2,16.0,30.11,WNW,282,6.0,12.0,49,0.00,,,0.00,weatherlink.com 1.10,2013-01-30 13:03:00,
2013-01-30 07:18:00,33.0,16.0,30.12,West,276,6.0,9.0,49,0.00,,,0.00,weatherlink.com 1.10,2013-01-30 13:18:00,
2013-01-30 07:33:00,32.4,16.0,30.13,West,281,7.0,9.0,50,0.00,,,0.00,weatherlink.com 1.10,2013-01-30 13:33:00,
2013-01-30 07:48:00,32.2,16.0,30.13,WNW,286,6.0,10.0,51,0.00,,,0.00,weatherlink.com 1.10,2013-01-30 13:48:00,
2013-01-30 08:04:00,31.8,16.0,30.14,WNW,283,4.0,10.0,52,0.00,,,0.00,weatherlink.com 1.10,2013-01-30 14:04:00,
2013-01-30 08:19:00,31.5,16.0,30.15,WNW,283,3.0,6.0,53,0.00,,,0.00,weatherlink.com 1.10,2013-01-30 14:19:00,
2013-01-30 08:34:00,32.4,17.0,30.15,West,276,5.0,8.0,53,0.00,,,0.00,weatherlink.com 1.10,2013-01-30 14:34:00,
2013-01-30 08:49:00,33.9,17.0,30.15,WNW,282,8.0,11.0,50,0.00,,,0.00,weatherlink.com 1.10,2013-01-30 14:49:00,
2013-01-30 09:03:00,34.9,17.0,30.16,WNW,290,7.0,11.0,49,0.00,,,0.00,weatherlink.com 1.10,2013-01-30 15:03:00,
2013-01-30 09:19:00,36.0,17.0,30.18,WNW,288,10.0,14.0,47,0.00,,,0.00,weatherlink.com 1.10,2013-01-30 15:19:00,
2013-01-30 09:34:00,36.7,18.0,30.18,West,261,6.0,16.0,46,0.00,,,0.00,weatherlink.com 1.10,2013-01-30 15:34:00,
2013-01-30 09:49:00,37.4,18.0,30.19,West,269,9.0,16.0,45,0.00,,,0.00,weatherlink.com 1.10,2013-01-30 15:49:00,
2013-01-30 10:04:00,38.6,17.0,30.20,WNW,301,8.0,15.0,42,0.00,,,0.00,weatherlink.com 1.10,2013-01-30 16:04:00,
2013-01-30 10:19:00,39.4,18.0,30.21,WNW,284,11.0,12.0,42,0.00,,,0.00,weatherlink.com 1.10,2013-01-30 16:19:00,
2013-01-30 10:34:00,39.7,19.0,30.20,West,281,8.0,12.0,43,0.00,,,0.00,weatherlink.com 1.10,2013-01-30 16:34:00,
2013-01-30 10:49:00,40.5,17.0,30.20,WNW,292,2.0,11.0,38,0.00,,,0.00,weatherlink.com 1.10,2013-01-30 16:49:00,
2013-01-30 11:04:00,42.5,16.0,30.21,WNW,284,4.0,11.0,35,0.00,,,0.00,weatherlink.com 1.10,2013-01-30 17:04:00,
2013-01-30 11:19:00,43.4,14.0,30.21,WNW,284,4.0,13.0,30,0.00,,,0.00,weatherlink.com 1.10,2013-01-30 17:19:00,
2013-01-30 11:34:00,44.4,14.0,30.21,NW,312,10.0,14.0,29,0.00,,,0.00,weatherlink.com 1.10,2013-01-30 17:34:00,
2013-01-30 11:49:00,44.9,13.0,30.21,WNW,282,12.0,15.0,28,0.00,,,0.00,weatherlink.com 1.10,2013-01-30 17:49:00,
2013-01-30 12:04:00,45.9,13.0,30.20,WNW,292,6.0,13.0,27,0.00,,,0.00,weatherlink.com 1.10,2013-01-30 18:04:00,
2013-01-30 12:20:00,46.8,12.0,30.20,WNW,287,9.0,14.0,24,0.00,,,0.00,weatherlink.com 1.10,2013-01-30 18:20:00,
2013-01-30 12:34:00,47.6,12.0,30.19,West,262,5.0,17.0,24,0.00,,,0.00,weatherlink.com 1.10,2013-01-30 18:34:00,
2013-01-30 12:49:00,47.4,11.0,30.19,West,273,11.0,15.0,23,0.00,,,0.00,weatherlink.com 1.10,2013-01-30 18:49:00,
2013-01-30 13:05:00,47.0,10.0,30.18,WNW,291,15.0,21.0,22,0.00,,,0.00,weatherlink.com 1.10,2013-01-30 19:05:00,
2013-01-30 13:20:00,47.4,7.0,30.18,West,261,10.0,18.0,19,0.00,,,0.00,weatherlink.com 1.10,2013-01-30 19:20:00,
2013-01-30 13:35:00,47.9,6.0,30.17,West,260,11.0,20.0,18,0.00,,,0.00,weatherlink.com 1.10,2013-01-30 19:35:00,
2013-01-30 13:50:00,47.8,7.0,30.16,WNW,298,14.0,22.0,19,0.00,,,0.00,weatherlink.com 1.10,2013-01-30 19:50:00,
2013-01-30 14:05:00,47.1,9.0,30.16,WSW,251,13.0,21.0,21,0.00,,,0.00,weatherlink.com 1.10,2013-01-30 20:05:00,
2013-01-30 14:20:00,48.3,8.0,30.16,WSW,246,12.0,21.0,19,0.00,,,0.00,weatherlink.com 1.10,2013-01-30 20:20:00,
2013-01-30 14:35:00,48.4,9.0,30.16,West,264,9.0,21.0,20,0.00,,,0.00,weatherlink.com 1.10,2013-01-30 20:35:00,
2013-01-30 14:50:00,48.5,13.0,30.15,West,281,13.0,20.0,24,0.00,,,0.00,weatherlink.com 1.10,2013-01-30 20:50:00,
2013-01-30 15:05:00,48.7,9.0,30.15,WNW,286,17.0,22.0,20,0.00,,,0.00,weatherlink.com 1.10,2013-01-30 21:05:00,
2013-01-30 15:20:00,48.5,9.0,30.16,WSW,257,11.0,19.0,20,0.00,,,0.00,weatherlink.com 1.10,2013-01-30 21:20:00,
2013-01-30 15:35:00,48.8,9.0,30.14,West,281,14.0,23.0,20,0.00,,,0.00,weatherlink.com 1.10,2013-01-30 21:35:00,
2013-01-30 15:50:00,49.4,5.0,30.15,WNW,299,14.0,19.0,16,0.00,,,0.00,weatherlink.com 1.10,2013-01-30 21:50:00,
2013-01-30 16:05:00,49.3,5.0,30.14,West,277,15.0,21.0,16,0.00,,,0.00,weatherlink.com 1.10,2013-01-30 22:05:00,
2013-01-30 16:20:00,48.9,4.0,30.15,West,261,15.0,23.0,16,0.00,,,0.00,weatherlink.com 1.10,2013-01-30 22:20:00,
2013-01-30 16:35:00,48.7,5.0,30.16,West,265,12.0,22.0,17,0.00,,,0.00,weatherlink.com 1.10,2013-01-30 22:35:00,
2013-01-30 16:50:00,48.5,7.0,30.16,WNW,285,15.0,22.0,18,0.00,,,0.00,weatherlink.com 1.10,2013-01-30 22:50:00,
2013-01-30 17:05:00,48.3,8.0,30.16,WNW,289,10.0,21.0,19,0.00,,,0.00,weatherlink.com 1.10,2013-01-30 23:05:00,
2013-01-30 17:20:00,48.2,6.0,30.15,West,262,13.0,22.0,18,0.00,,,0.00,weatherlink.com 1.10,2013-01-30 23:20:00,
2013-01-30 17:35:00,47.8,8.0,30.16,West,267,9.0,18.0,20,0.00,,,0.00,weatherlink.com 1.10,2013-01-30 23:35:00,
2013-01-30 17:50:00,47.2,10.0,30.16,West,270,13.0,18.0,22,0.00,,,0.00,weatherlink.com 1.10,2013-01-30 23:50:00,
2013-01-30 18:05:00,46.5,9.0,30.16,West,277,11.0,17.0,22,0.00,,,0.00,weatherlink.com 1.10,2013-01-31 00:05:00,
2013-01-30 18:20:00,45.8,11.0,30.15,West,277,7.0,16.0,24,0.00,,,0.00,weatherlink.com 1.10,2013-01-31 00:20:00,
2013-01-30 18:35:00,44.5,11.0,30.16,West,277,5.0,13.0,25,0.00,,,0.00,weatherlink.com 1.10,2013-01-31 00:35:00,
2013-01-30 18:50:00,43.3,10.0,30.16,WNW,290,1.0,6.0,26,0.00,,,0.00,weatherlink.com 1.10,2013-01-31 00:50:00,
2013-01-30 19:05:00,43.2,9.0,30.17,NW,317,5.0,8.0,25,0.00,,,0.00,weatherlink.com 1.10,2013-01-31 01:05:00,
2013-01-30 19:20:00,43.0,9.0,30.18,NW,306,3.0,7.0,25,0.00,,,0.00,weatherlink.com 1.10,2013-01-31 01:20:00,
2013-01-30 19:35:00,42.7,7.0,30.18,West,275,7.0,9.0,23,0.00,,,0.00,weatherlink.com 1.10,2013-01-31 01:35:00,
2013-01-30 19:50:00,42.6,7.0,30.18,WNW,286,7.0,10.0,23,0.00,,,0.00,weatherlink.com 1.10,2013-01-31 01:50:00,
2013-01-30 20:05:00,42.0,6.0,30.19,WNW,286,5.0,7.0,22,0.00,,,0.00,weatherlink.com 1.10,2013-01-31 02:05:00,
2013-01-30 20:20:00,42.1,6.0,30.20,WNW,286,4.0,9.0,22,0.00,,,0.00,weatherlink.com 1.10,2013-01-31 02:20:00,
2013-01-30 20:35:00,41.6,5.0,30.20,WNW,286,3.0,7.0,22,0.00,,,0.00,weatherlink.com 1.10,2013-01-31 02:35:00,
2013-01-30 20:50:00,41.1,6.0,30.20,WNW,286,1.0,5.0,23,0.00,,,0.00,weatherlink.com 1.10,2013-01-31 02:50:00,
2013-01-30 21:05:00,40.9,6.0,30.20,WNW,286,3.0,5.0,23,0.00,,,0.00,weatherlink.com 1.10,2013-01-31 03:05:00,
2013-01-30 21:20:00,40.7,5.0,30.20,WNW,286,3.0,6.0,23,0.00,,,0.00,weatherlink.com 1.10,2013-01-31 03:20:00,
2013-01-30 21:35:00,40.4,5.0,30.21,WNW,286,0.0,4.0,23,0.00,,,0.00,weatherlink.com 1.10,2013-01-31 03:35:00,
2013-01-30 21:50:00,40.5,5.0,30.21,WNW,286,1.0,5.0,23,0.00,,,0.00,weatherlink.com 1.10,2013-01-31 03:50:00,
2013-01-30 22:05:00,40.9,6.0,30.21,West,281,4.0,8.0,23,0.00,,,0.00,weatherlink.com 1.10,2013-01-31 04:05:00,
2013-01-30 22:20:00,40.4,5.0,30.21,West,279,6.0,8.0,23,0.00,,,0.00,weatherlink.com 1.10,2013-01-31 04:20:00,
2013-01-30 22:35:00,39.6,5.0,30.21,West,272,3.0,9.0,24,0.00,,,0.00,weatherlink.com 1.10,2013-01-31 04:35:00,
2013-01-30 22:50:00,38.9,6.0,30.22,West,272,5.0,7.0,25,0.00,,,0.00,weatherlink.com 1.10,2013-01-31 04:50:00,
2013-01-30 23:05:00,38.7,6.0,30.22,West,271,8.0,8.0,25,0.00,,,0.00,weatherlink.com 1.10,2013-01-31 05:05:00,
2013-01-30 23:20:00,38.4,5.0,30.23,West,277,5.0,9.0,25,0.00,,,0.00,weatherlink.com 1.10,2013-01-31 05:20:00,
2013-01-30 23:35:00,38.0,6.0,30.24,WNW,285,4.0,10.0,26,0.00,,,0.00,weatherlink.com 1.10,2013-01-31 05:35:00,
2013-01-30 23:50:00,37.9,6.0,30.24,WNW,285,2.0,6.0,26,0.00,,,0.00,weatherlink.com 1.10,2013-01-31 05:50:00,